CAPE
1686 1413 1316 1042 531 324 634 79 1111 643 1729 798 1707 1814 1854 1647 2076 1967 1388 1690 1544 1526 1817 2034 1548 1436 1400 1939 1604 796 578 770 677 662 1028 900 1141 1125 1197 1188 1337 1321 1328
1785 1589 1470 1402 918 719 135 1006 977 1255 1053 1984 1244 1900 1387 1853 1868 1821 2008 1432 1747 1666 1849 1479 2120 2495 2228 1649 1683 1738 1883 1754 1232 1043 971 655 775 1394 1569 1688 1807 1670 1539
1755 1622 1637 1575 1490 1049 723 356 1326 1443 1954 1545 2094 1590 1986 1688 1646 1696 2159 2063 1696 2321 2279 2102 1873 1975 1997 2592 2344 2053 1582 1667 1540 1320 1750 2288 2072 1736 1648 1805 2038 2020 2059
1527 1585 1565 1598 1510 1370 1439 658 1578 1706 1501 1805 1831 2285 2139 1961 1625 1600 2377 2383 2087 1906 2284 1835 2191 2414 2375 2534 2401 2097 2204 2151 1959 1814 1625 1791 2036 2021 2129 2107 1764 1734 1903
1100 1380 1627 1734 1598 1592 1350 1421 741 1462 1911 2022 2074 2294 2451 2393 1965 1562 1816 2350 2390 2259 2079 2200 2205 2400 2371 2627 2772 2829 2745 2661 2726 2741 2717 2643 2093 1682 1699 2028 2513 2670 2400
1124 1314 1415 1690 1699 1673 1438 1522 1646 1476 1716 2118 2303 2335 2550 2535 2031 1463 1600 1725 2353 2359 2246 2161 2477 2068 1850 1668 1731 2182 2394 2382 2615 2875 2881 2492 2105 1954 2343 2020 1851 2104 1964
1362 1340 1400 1659 1796 1700 1846 1506 2003 1837 2052 2172 2317 2455 2558 2660 1971 1306 1298 1632 1759 2135 2344 2325 2354 2206 2061 2212 1858 1501 1560 1723 1813 1969 1967 1944 1925 1792 2003 2316 2263 2609 2730
1530 1673 1532 1514 1712 1905 1890 2046 1831 2214 2114 2304 2402 2466 2567 2663 2436 1483 1022 1307 1586 1819 1883 2110 2290 2247 1890 2261 2488 2558 2430 2340 2248 1986 1931 2077 2272 2481 2465 2415 2555 2935 2454
2102 1699 1965 1578 1827 1912 2039 1993 2130 2126 2353 2362 2548 2596 2523 2649 2470 2043 1180 1000 1235 1330 1410 1782 2431 2441 2192 1628 1270 1527 2104 2555 2910 2695 2715 2650 2287 2201 2388 2484 2170 1791 2397
1783 2250 1950 2050 1870 2112 2134 2162 2236 2286 2362 2538 2498 2654 2814 2792 2579 2174 1689 1578 1254 1372 1560 1675 1481 1283 1575 2279 2539 2391 2087 1821 2063 2440 2621 2406 2101 2053 1753 1641 2408 3044 3408
2265 1926 2467 2470 2092 2397 2421 2427 2500 2559 2646 2710 2718 2775 2996 3008 3078 2348 1603 2019 1693 1731 1568 1714 1990 1770 1461 1186 1098 1544 1824 2204 2542 2748 2674 2360 2173 2885 3180 3365 3545 3340 3089
2660 2406 2421 2517 2724 2499 2855 2914 2822 2843 2897 2904 2946 3011 3030 3344 3107 2633 2169 1633 2021 2015 1905 1997 1830 1556 1528 1357 1106 1069 1215 1354 1830 1877 1849 2088 2517 2771 3455 3815 3739 3398 3248
2045 2669 2654 2923 2903 2739 3005 3119 3231 3178 3164 3090 3074 3194 3204 3218 3465 2834 2204 2048 1891 2101 2149 2011 1428 1221 719 442 430 731 797 1089 1341 1700 2254 2678 2979 3512 3537 3207 2957 3065 3148
1543 3010 2858 3156 3139 2970 3074 3240 3347 3327 3318 3265 2998 3301 3196 3144 3204 3529 2519 1806 1779 1786 1950 2110 1870 1702 1612 1991 2238 1319 1314 1864 2436 2856 2949 3114 3562 3447 2987 2852 2989 3022 1100
2379 3082 3170 3244 3099 3171 2834 3311 3321 3233 3228 3197 3169 2868 3169 2981 2672 2610 2792 2269 2058 1913 2087 2139 2196 2078 1816 2058 2572 3074 2900 2881 2996 3089 3214 3463 3417 2935 2894 2904 2992 1252 708
3296 3301 3188 3176 3163 3204 2889 2520 1554 2667 2348 2777 2534 2897 2029 1760 1395 1461 1090 2073 1867 1859 1940 2360 2401 2387 2352 2211 2231 2660 3347 3552 3538 3638 3579 3388 3051 2875 2748 2652 1044 658 555
1752 2889 2918 2772 2915 2991 2956 2724 2338 1053 521 896 1660 1735 2316 1977 1890 1772 1703 1533 1951 2009 2647 2484 2570 2929 2947 3203 3416 3727 3847 3830 3775 3473 3347 3051 2763 2558 2017 1101 690 535 402
590 1440 2502 2647 2540 2842 2907 2997 2364 2153 2088 1747 647 831 1089 1536 1770 1813 2074 2280 2266 2205 2823 3293 3432 3338 3572 3639 3418 3434 3573 3318 3071 2960 2845 2830 2203 1840 1171 798 675 494 334
0 66 556 1643 1925 2163 2666 3085 2803 2614 2546 2431 1354 599 289 405 642 987 1528 2517 2818 3020 3035 3118 3489 3599 3728 3835 3629 3528 3206 2859 2551 2201 2096 1781 1186 857 616 506 394 202 119
0 0 90 614 817 599 1407 1375 1928 2088 2068 1615 1094 1068 536 349 724 851 1602 2193 2551 2944 3510 3424 3286 3233 3113 2785 2392 2218 1867 1170 985 788 666 541 355 301 240 236 219 230 120
0 0 0 433 289 459 784 528 457 506 511 284 186 72 115 195 1403 2244 1685 1156 1908 2667 2458 2357 1622 1337 915 853 734 698 673 654 614 346 273 174 120 18 17 72 41 132 186
0 0 13 511 567 758 792 859 743 314 378 502 322 154 55 283 340 360 152 178 255 432 575 581 402 193 129 110 73 52 43 52 65 60 17 4 35 26 1 0 0 0 1
0 0 0 0 119 280 188 0 4 58 134 179 281 624 578 107 14 3 1 0 0 0 0 0 0 0 0 0 0 0 0 0 0 0 0 0 0 0 9 0 0 0 1
0 1 0 0 0 0 2 1 0 0 0 0 0 2 0 0 0 0 0 0 0 0 0 0 0 0 0 0 0 0 0 0 0 0 0 0 0 0 0 7 19 13 6
1 2 0 0 0 0 0 0 0 1 4 4 1 0 0 0 0 0 0 0 0 0 0 0 0 0 0 0 0 0 0 0 0 0 0 0 0 0 0 0 1 0 1
7 8 7 7 5 8 9 5 5 1 2 1 1 2 2 0 0 0 0 0 0 0 0 0 0 0 0 0 0 0 0 0 0 0 0 0 0 0 0 0 0 0 0
CIN
-46 -70 -67 -100 -144 -153 -80 -251 -29 -54 -7 -11 -4 -5 -9 -10 -1 -1 -9 -3 -6 -9 -6 -2 -24 -26 -45 -17 -19 -69 -95 -81 -107 -117 -89 -110 -109 -124 -129 -148 -171 -193 -201
-69 -55 -66 -71 -117 -115 -291 -58 -54 -27 -25 -9 -15 -5 -23 -4 -8 -4 -3 -12 -5 -8 -9 -23 -3 -1 -19 -47 -53 -43 -30 -24 -76 -107 -114 -155 -155 -112 -108 -113 -117 -154 -178
-62 -62 -44 -52 -68 -117 -160 -209 -39 -32 -14 -16 -17 -23 -8 -24 -26 -31 -6 -8 -10 -1 -4 -12 -27 -27 -40 -22 -35 -52 -70 -53 -63 -97 -103 -74 -73 -79 -103 -87 -80 -121 -119
-106 -92 -86 -90 -110 -118 -97 -186 -24 -31 -49 -25 -26 -14 -25 -28 -41 -44 -8 -2 -6 -10 -2 -17 -6 -7 -30 -33 -50 -70 -59 -56 -57 -61 -88 -81 -63 -72 -53 -59 -114 -105 -89
-156 -149 -140 -99 -82 -74 -97 -104 -175 -56 -35 -42 -35 -19 -12 -14 -33 -51 -46 -13 -6 -10 -8 -3 -5 -3 -14 -11 -12 -26 -26 -26 -23 -17 -18 -16 -54 -110 -113 -96 -61 -68 -130
-161 -174 -133 -88 -79 -69 -90 -70 -60 -61 -50 -39 -32 -27 -11 -10 -32 -64 -64 -50 -9 -12 -18 -13 -1 -13 -46 -73 -75 -43 -31 -31 -26 -16 -19 -55 -116 -126 -85 -140 -184 -173 -231
-138 -144 -153 -121 -104 -109 -63 -76 -22 -40 -14 -34 -44 -34 -21 -17 -37 -81 -84 -59 -46 -26 -24 -22 -11 -18 -28 -33 -70 -109 -128 -118 -128 -118 -154 -179 -192 -190 -170 -142 -154 -111 -121
-122 -115 -147 -163 -148 -99 -76 -44 -49 -11 -18 -12 -31 -48 -35 -36 -41 -76 -121 -73 -57 -48 -48 -41 -27 -44 -51 -12 -20 -33 -64 -84 -106 -156 -197 -187 -165 -134 -122 -129 -106 -64 -146
-71 -152 -138 -182 -148 -133 -108 -91 -52 -27 -16 -22 -22 -37 -49 -44 -58 -81 -112 -124 -92 -92 -94 -69 -31 -37 -79 -95 -124 -126 -91 -73 -58 -97 -103 -122 -186 -200 -166 -143 -166 -190 -102
-131 -136 -141 -137 -153 -153 -144 -109 -77 -49 -48 -32 -40 -41 -39 -50 -68 -93 -117 -75 -103 -110 -100 -108 -133 -147 -130 -89 -64 -86 -138 -191 -168 -142 -118 -149 -201 -207 -237 -273 -119 -28 -1
-128 -112 -75 -94 -150 -116 -113 -97 -75 -51 -31 -24 -21 -20 -15 -39 -50 -100 -152 -81 -89 -79 -110 -118 -120 -160 -193 -232 -270 -221 -219 -171 -142 -113 -133 -180 -199 -79 -29 -18 -10 -11 -22
-41 -106 -76 -99 -74 -85 -68 -60 -61 -39 -20 -13 -21 -12 -10 -12 -42 -84 -132 -150 -106 -75 -77 -88 -110 -143 -190 -224 -294 -328 -317 -317 -253 -258 -261 -218 -128 -88 -5 -5 -20 -30 -33
-67 -76 -99 -63 -62 -66 -61 -49 -35 -28 -20 -18 -10 -18 -11 -15 -16 -72 -136 -152 -152 -108 -114 -96 -181 -221 -286 -385 -440 -423 -430 -385 -335 -279 -185 -118 -66 -3 -18 -39 -60 -59 -25
-99 -46 -76 -69 -68 -62 -39 -38 -25 -30 -26 -19 -25 -8 -31 -16 -8 -16 -111 -203 -216 -197 -170 -155 -198 -207 -239 -213 -211 -370 -369 -257 -164 -97 -85 -64 -16 -22 -61 -80 -51 -16 -230
-91 -33 -38 -45 -65 -40 -51 -46 -39 -41 -47 -58 -41 -57 -10 -37 -56 -31 -43 -142 -182 -214 -191 -174 -174 -205 -239 -210 -144 -86 -120 -110 -89 -75 -50 -13 -12 -53 -70 -61 -21 -202 -305
-7 -11 -17 -24 -35 -37 -45 -94 -272 -73 -111 -66 -82 -22 -106 -150 -216 -149 -183 -129 -147 -179 -198 -145 -156 -169 -177 -186 -163 -107 -35 -32 -28 -7 -7 -8 -17 -29 -51 -38 -234 -303 -326
-75 -4 -6 -13 -6 -25 -32 -47 -96 -387 -535 -346 -150 -102 -92 -184 -202 -245 -239 -246 -189 -208 -124 -137 -120 -76 -81 -40 -24 -9 -9 -5 -9 -11 -11 -15 -22 -21 -74 -195 -266 -314 -359
-227 -106 -9 -5 -4 -8 -11 -5 -71 -128 -138 -192 -475 -368 -309 -212 -200 -237 -230 -190 -138 -137 -60 -34 -21 -18 -2 -10 -40 -32 -20 -32 -40 -26 -27 -15 -32 -44 -137 -192 -221 -276 -334
-0 -176 -206 -56 -39 -20 -4 -2 -6 -25 -22 -31 -228 -410 -542 -504 -439 -356 -312 -127 -87 -57 -43 -32 -5 -9 -5 -9 -8 -5 -13 -29 -57 -60 -37 -58 -86 -153 -206 -227 -271 -387 -442
-0 -0 -327 -109 -111 -199 -63 -78 -34 -21 -13 -83 -160 -161 -324 -386 -213 -268 -271 -204 -120 -51 -24 -21 -70 -50 -20 -23 -56 -64 -100 -209 -215 -220 -193 -210 -296 -330 -318 -319 -313 -304 -383
-0 -0 -0 -110 -176 -127 -44 -133 -131 -74 -110 -163 -307 -461 -428 -384 -100 -12 -113 -250 -213 -103 -73 -98 -196 -232 -247 -223 -231 -256 -225 -217 -198 -264 -281 -340 -379 -496 -543 -424 -441 -308 -264
-0 -0 -113 -12 -35 -19 -20 -29 -45 -79 -23 -52 -256 -402 -439 -359 -295 -344 -417 -467 -445 -358 -339 -300 -375 -450 -518 -489 -416 -511 -445 -266 -383 -381 -450 -121 -399 -379 -111 -0 -0 -0 -113
-0 -0 -77 -0 -115 -77 -153 -8 -147 -290 -209 -17 -167 -135 -208 -281 -535 -260 -303 -0 -0 -0 -0 -0 -0 -0 -0 -0 -0 -0 -0 -0 -0 -0 -0 -0 -0 -2 -134 -0 -0 -0 -158
-0 -0 -0 -0 -0 -0 -43 -0 -0 -0 -0 -0 -0 -56 -0 -0 -0 -0 -0 -0 -0 -0 -0 -0 -0 -0 -0 -0 -0 -0 -0 -0 -0 -0 -0 -0 -0 -0 -0 -2 -20 -4 -1
-0 -0 -0 -0 -0 -0 -0 -0 -0 -0 -0 -0 -0 -0 -0 -0 -0 -0 -0 -0 -0 -0 -0 -0 -0 -0 -0 -0 -0 -0 -0 -0 -0 -0 -0 -0 -0 -0 -0 -2 -1 -0 -1
-0 -0 -0 -0 -0 -0 -0 -0 -0 -0 -0 -0 -0 -0 -0 -0 -0 -0 -0 -0 -0 -0 -0 -0 -0 -0 -0 -0 -0 -0 -0 -0 -0 -0 -0 -0 -0 -0 -0 -0 -0 -0 -0
Wind_Speed
18 18 18 17 19 18 16 21 14 37 28 13 7 1 8 17 22 17 19 20 17 16 19 20 18 20 24 22 18 20 20 19 18 18 18 20 19 17 13 10 7 6 6
17 18 19 19 18 19 20 14 13 12 32 19 11 10 1 5 16 18 15 18 13 15 15 21 25 21 24 26 25 24 22 21 21 20 20 20 19 17 14 10 7 4 3
18 16 20 20 19 20 20 20 17 15 15 17 14 10 9 4 9 13 13 14 18 12 13 14 19 28 28 27 27 26 26 25 23 21 20 18 18 18 18 16 10 8 5
21 19 18 20 20 19 18 20 17 17 17 13 14 14 10 7 7 11 10 10 13 17 13 16 17 24 31 28 28 29 29 29 28 26 26 23 20 20 20 26 27 18 13
20 23 22 17 20 19 18 18 20 19 16 15 14 13 12 9 9 10 10 10 11 14 18 15 16 21 34 33 33 32 28 27 28 26 25 25 28 29 29 28 28 28 19
21 21 19 16 17 18 18 18 19 19 19 17 16 14 13 12 12 14 11 11 12 15 22 26 30 21 25 33 34 32 31 33 32 32 32 32 29 30 31 31 28 26 23
21 19 18 17 18 19 17 18 18 19 19 19 18 16 16 15 15 17 16 13 13 15 18 19 22 27 23 34 33 32 31 30 30 29 28 26 23 18 16 17 11 13 15
20 18 19 20 19 18 19 19 19 18 19 19 18 18 17 16 16 18 17 17 15 17 18 18 17 23 33 33 34 35 33 29 29 26 21 19 17 15 10 11 14 17 20
17 21 20 21 18 18 20 21 18 18 18 19 18 18 18 17 17 19 16 14 19 18 19 19 15 16 22 30 38 38 36 34 30 20 17 17 18 16 12 14 18 22 22
20 19 20 18 20 19 18 17 17 18 18 18 19 19 19 18 17 18 18 15 17 15 15 25 28 30 32 33 34 39 39 38 37 13 9 27 23 9 11 12 18 23 27
19 19 17 19 22 19 16 15 15 16 17 18 18 20 20 19 19 18 18 16 15 13 12 12 19 26 30 31 31 35 37 35 24 18 28 30 13 12 17 13 13 19 24
23 22 20 20 18 19 18 16 16 16 16 17 18 20 19 18 18 18 17 20 16 15 17 21 28 30 26 29 30 30 28 20 16 35 18 18 23 18 16 20 20 22 23
36 24 22 20 20 19 20 19 17 17 18 17 19 19 20 20 21 17 16 18 22 17 19 31 29 29 29 32 31 28 22 18 15 27 21 22 15 19 21 24 23 20 20
38 27 25 22 19 20 19 20 19 17 19 20 20 21 20 26 26 20 16 15 18 21 21 21 40 36 32 31 27 22 18 19 20 20 19 18 20 23 24 23 23 24 26
32 28 26 24 22 20 21 21 20 19 17 19 21 22 23 23 26 27 17 15 14 13 20 29 33 34 35 32 27 25 22 20 18 19 17 19 21 24 24 21 22 23 25
29 30 29 26 24 22 22 25 25 18 16 17 20 19 20 18 20 22 20 13 12 13 17 22 26 29 29 27 26 24 21 19 19 20 20 22 26 26 22 23 22 26 26
33 34 34 32 28 26 24 25 23 20 18 16 17 17 15 14 15 16 15 17 14 13 17 18 21 22 21 20 19 20 20 20 21 22 22 23 23 23 23 24 24 23 25
30 32 38 35 35 30 28 25 23 21 19 16 17 20 18 17 16 15 15 15 16 19 20 22 23 24 23 21 22 22 22 21 22 23 22 22 22 22 23 24 23 24 24
26 27 31 31 33 33 29 29 24 22 21 17 16 20 22 22 23 21 18 20 20 21 24 27 28 24 24 23 19 19 20 22 22 23 24 23 24 22 24 24 25 24 23
21 23 21 21 21 23 26 25 24 21 19 17 16 18 18 21 24 28 25 22 26 28 25 20 20 23 24 24 23 23 21 21 22 23 25 23 24 23 26 26 23 22 23
20 14 20 21 16 19 19 21 22 21 21 21 20 20 18 25 29 28 27 26 22 25 24 21 19 21 22 21 21 21 23 25 24 24 23 23 24 24 22 24 23 25 21
20 19 14 12 14 17 21 22 21 19 22 22 23 26 24 25 25 27 24 22 23 21 19 16 17 18 19 20 22 23 24 25 25 25 22 21 20 19 18 20 22 22 21
21 19 14 13 12 10 14 11 15 15 16 18 19 17 17 13 14 18 19 17 15 19 19 16 14 14 17 18 20 21 23 24 26 26 25 24 24 24 19 20 20 22 22
18 15 15 15 13 14 15 16 16 21 21 24 18 11 11 10 10 10 11 11 14 16 16 15 15 16 18 19 21 22 23 24 25 26 27 28 28 28 28 24 23 23 24
19 19 18 18 18 19 19 19 18 15 14 11 11 8 12 10 10 12 13 12 13 12 12 14 16 17 20 22 24 24 24 26 25 26 25 26 26 27 28 28 28 29 28
18 18 18 18 18 19 20 19 18 17 18 17 17 16 15 14 12 11 11 10 11 11 13 15 16 18 20 23 25 27 26 26 25 25 24 23 25 25 28 30 31 31 32
Wind_Direction
204 206 215 209 201 201 245 187 248 207 250 267 287 92 130 160 176 161 172 181 161 154 173 190 161 177 216 229 219 200 201 203 205 218 231 250 251 248 233 230 228 240 249
202 223 222 226 213 208 205 225 219 224 248 264 264 284 231 143 166 171 166 176 157 164 164 184 214 182 202 223 235 236 239 226 232 234 237 244 241 243 242 237 234 240 264
189 216 230 230 224 208 206 204 204 212 250 257 264 260 272 251 169 171 169 170 183 164 167 169 183 218 224 227 228 232 236 240 230 230 236 234 241 247 251 248 244 250 267
183 189 215 219 216 214 216 207 216 206 208 229 252 263 258 245 197 179 176 175 179 189 181 187 189 204 227 219 222 231 240 243 246 244 248 248 245 251 256 288 290 270 280
185 185 190 216 228 232 225 226 213 210 213 216 230 242 247 232 212 196 191 187 186 189 194 192 194 201 237 235 236 242 228 230 238 238 241 249 272 280 279 278 280 283 281
188 188 188 201 220 224 223 229 230 222 212 216 215 222 225 218 208 198 198 196 193 193 201 210 220 205 211 226 231 228 231 241 245 252 261 263 260 268 278 279 276 280 284
192 191 191 192 204 207 221 219 228 221 231 218 217 220 219 218 209 202 201 202 199 198 199 200 206 215 210 235 229 225 226 227 229 234 239 241 246 249 255 266 306 321 298
199 201 195 193 197 207 208 211 217 232 227 233 229 223 226 227 218 209 208 206 206 202 204 204 204 210 229 269 249 234 234 225 227 227 224 232 238 247 273 299 314 326 336
218 202 200 196 198 201 203 206 216 225 231 230 235 231 224 232 224 214 219 218 210 210 209 208 207 210 212 221 243 251 256 256 260 220 225 234 242 250 277 317 324 333 335
206 208 206 202 198 200 205 208 222 225 224 238 238 241 243 246 240 223 219 225 215 221 220 214 216 219 221 226 225 248 249 255 272 291 260 248 253 288 296 317 331 333 336
234 238 230 214 201 203 216 220 223 226 237 237 242 252 252 247 253 233 225 234 231 250 240 230 211 212 216 217 217 226 237 276 302 313 310 312 316 324 332 330 335 337 337
249 241 236 219 224 212 209 216 228 234 233 241 241 255 254 254 245 253 230 219 234 252 271 279 220 214 209 213 217 220 222 222 244 277 278 317 322 329 335 339 342 337 333
255 240 238 238 225 222 216 215 221 235 244 244 253 252 259 260 261 237 238 226 215 228 265 271 271 271 274 259 222 220 217 221 229 304 314 318 324 331 336 336 336 339 339
249 245 238 236 228 230 231 228 219 226 241 251 250 257 259 264 266 263 249 247 220 215 214 265 256 263 273 278 286 294 297 301 304 309 315 319 324 325 330 334 334 335 334
246 241 238 240 237 237 234 226 219 217 226 245 256 256 262 263 263 264 255 255 258 243 265 267 265 267 269 277 285 291 296 299 302 308 314 318 322 325 328 333 331 333 332
248 242 241 242 241 241 236 248 256 240 243 245 255 255 264 267 269 269 265 226 238 258 267 272 272 272 276 281 285 289 292 297 305 311 313 315 316 320 324 327 330 327 327
258 251 248 246 247 241 240 242 240 252 258 256 249 251 258 264 270 273 276 269 248 251 270 274 277 280 281 284 287 292 296 301 308 311 313 315 315 316 319 323 324 326 326
264 257 252 249 249 243 242 240 237 235 239 245 255 258 258 260 266 271 276 276 272 266 271 277 281 283 282 284 288 292 297 304 308 311 313 315 313 316 318 319 321 322 324
270 260 255 251 249 248 239 237 237 237 243 246 252 260 266 269 271 271 269 273 273 273 275 275 277 284 282 287 290 294 299 303 308 309 309 313 312 315 315 316 316 319 322
277 267 261 252 250 247 246 240 242 238 238 245 253 258 264 272 276 273 272 275 274 276 280 286 278 286 286 289 292 295 297 303 306 306 308 309 314 313 311 311 315 318 321
279 269 274 253 249 245 251 248 253 250 250 248 258 266 271 274 276 276 276 278 280 281 282 283 285 288 293 295 298 299 300 302 304 306 307 305 309 309 310 311 314 316 321
284 292 303 283 269 258 260 257 254 258 266 266 272 272 289 282 277 272 285 289 286 289 290 290 293 296 299 300 301 301 302 305 304 307 308 309 312 313 315 315 314 315 318
280 284 293 310 287 280 267 309 273 272 282 280 285 291 299 289 290 290 290 288 283 283 291 300 302 304 308 309 309 311 309 309 308 307 307 309 310 311 311 314 317 315 316
292 290 291 298 308 297 285 287 291 291 290 271 286 298 290 300 314 302 296 299 293 294 303 311 313 313 315 317 318 317 314 312 310 308 307 305 305 306 307 309 309 312 314
288 291 292 294 293 294 291 293 294 306 305 295 293 295 281 299 307 302 302 303 302 312 317 316 316 318 319 317 318 316 316 315 313 311 309 307 306 306 308 310 312 313 313
296 298 300 295 289 292 289 287 294 295 297 300 297 297 300 302 307 304 303 303 305 311 315 320 327 330 325 323 319 319 318 318 316 315 314 312 310 313 312 310 309 310 311